| time (UTC) | temp C | wind direction | speed KPH | gust KPH | rain 1hr cm | rain 24hr cm | rain mn cm | humidity % | barometer mb |
| 20260507142043 | 5 | 223 | 8.0 | 17.7 | 0.00 | 0.61 | 0.15 | 71 | 1016.4 |
| 20260507141553 | 6 | 223 | 9.7 | 17.7 | 0.00 | 0.61 | 0.15 | 72 | 1016.4 |
| 20260507141043 | 6 | 235 | 8.0 | 14.5 | 0.00 | 0.61 | 0.15 | 74 | 1016.4 |
| 20260507140543 | 6 | 258 | 4.8 | 16.1 | 0.00 | 0.61 | 0.15 | 75 | 1016.3 |
| 20260507140110 | 6 | 255 | 4.8 | 19.3 | 0.00 | 0.61 | 0.15 | 74 | 1016.2 |
| 20260507135543 | 6 | 244 | 8.0 | 20.9 | 0.00 | 0.61 | 0.15 | 74 | 1016.1 |
| 20260507135043 | 6 | 234 | 11.3 | 20.9 | 0.00 | 0.61 | 0.15 | 74 | 1016.0 |
| 20260507134555 | 6 | 265 | 11.3 | 20.9 | 0.00 | 0.61 | 0.15 | 73 | 1016.0 |
| 20260507134043 | 6 | 252 | 12.9 | 20.9 | 0.00 | 0.61 | 0.15 | 73 | 1016.0 |
| 20260507133543 | 6 | 245 | 6.4 | 12.9 | 0.00 | 0.61 | 0.15 | 73 | 1015.9 |
| 20260507133056 | 6 | 243 | 6.4 | 17.7 | 0.00 | 0.61 | 0.15 | 72 | 1015.9 |
| 20260507132543 | 6 | 251 | 6.4 | 17.7 | 0.00 | 0.61 | 0.15 | 70 | 1015.9 |
| 20260507132042 | 6 | 209 | 6.4 | 17.7 | 0.00 | 0.61 | 0.15 | 70 | 1015.8 |
| 20260507131618 | 6 | 235 | 8.0 | 17.7 | 0.00 | 0.61 | 0.15 | 70 | 1015.9 |
| 20260507131043 | 6 | 288 | 6.4 | 14.5 | 0.00 | 0.61 | 0.15 | 71 | 1016.0 |
| 20260507130544 | 6 | 250 | 4.8 | 19.3 | 0.00 | 0.61 | 0.15 | 72 | 1015.9 |
| 20260507130050 | 6 | 178 | 9.7 | 19.3 | 0.00 | 0.61 | 0.15 | 70 | 1015.9 |
| 20260507125543 | 6 | 240 | 9.7 | 17.7 | 0.00 | 0.61 | 0.15 | 70 | 1015.9 |
| 20260507125043 | 6 | 275 | 8.0 | 19.3 | 0.00 | 0.61 | 0.15 | 69 | 1015.9 |
| 20260507124600 | 6 | 230 | 9.7 | 20.9 | 0.00 | 0.61 | 0.15 | 68 | 1015.9 |
| 20260507124044 | 6 | 299 | 4.8 | 20.9 | 0.00 | 0.61 | 0.15 | 72 | 1015.7 |
| 20260507123543 | 6 | 209 | 8.0 | 20.9 | 0.00 | 0.61 | 0.15 | 69 | 1015.8 |
| 20260507123051 | 6 | 265 | 8.0 | 17.7 | 0.00 | 0.61 | 0.15 | 71 | 1015.7 |
| 20260507122543 | 6 | 194 | 4.8 | 16.1 | 0.00 | 0.61 | 0.15 | 72 | 1015.6 |
| 20260507122047 | 6 | 213 | 6.4 | 16.1 | 0.00 | 0.61 | 0.15 | 74 | 1015.7 |
| 20260507121556 | 6 | 261 | 8.0 | 17.7 | 0.00 | 0.61 | 0.15 | 76 | 1015.6 |
| 20260507121043 | 5 | 186 | 6.4 | 17.7 | 0.00 | 0.61 | 0.15 | 78 | 1015.5 |
| 20260507120542 | 5 | 315 | 4.8 | 12.9 | 0.00 | 0.61 | 0.15 | 79 | 1015.6 |
| 20260507120051 | 5 | 242 | 4.8 | 12.9 | 0.00 | 0.61 | 0.15 | 79 | 1015.7 |
| 20260507115543 | 5 | 175 | 4.8 | 14.5 | 0.00 | 0.61 | 0.15 | 80 | 1015.6 |
| 20260507115043 | 5 | 259 | 8.0 | 14.5 | 0.00 | 0.61 | 0.15 | 79 | 1015.7 |
| 20260507114549 | 5 | 171 | 4.8 | 14.5 | 0.00 | 0.61 | 0.15 | 79 | 1015.6 |
| 20260507114051 | 5 | 165 | 4.8 | 11.3 | 0.00 | 0.61 | 0.15 | 81 | 1015.6 |
| 20260507113545 | 5 | 197 | 1.6 | 6.4 | 0.00 | 0.61 | 0.15 | 80 | 1015.6 |
| 20260507113107 | 5 | 314 | 1.6 | 14.5 | 0.00 | 0.61 | 0.15 | 79 | 1015.4 |
| 20260507112545 | 5 | 0 | 3.2 | 16.1 | 0.00 | 0.61 | 0.15 | 78 | 1015.5 |
| 20260507112042 | 5 | 259 | 8.0 | 19.3 | 0.00 | 0.61 | 0.15 | 77 | 1015.4 |
| 20260507111545 | 5 | 315 | 8.0 | 22.5 | 0.00 | 0.61 | 0.15 | 77 | 1015.3 |
| 20260507111042 | 5 | 219 | 12.9 | 22.5 | 0.00 | 0.61 | 0.15 | 75 | 1015.2 |
| 20260507110543 | 5 | 221 | 8.0 | 22.5 | 0.00 | 0.61 | 0.15 | 77 | 1015.1 |
| 20260507110051 | 5 | 263 | 8.0 | 20.9 | 0.00 | 0.61 | 0.15 | 78 | 1014.9 |
| 20260507105542 | 5 | 258 | 8.0 | 17.7 | 0.00 | 0.61 | 0.15 | 77 | 1014.8 |
| 20260507105043 | 5 | 240 | 9.7 | 19.3 | 0.00 | 0.61 | 0.15 | 77 | 1014.8 |
| 20260507104559 | 5 | 196 | 6.4 | 19.3 | 0.00 | 0.61 | 0.15 | 77 | 1014.8 |
| 20260507104043 | 5 | 253 | 9.7 | 19.3 | 0.00 | 0.61 | 0.15 | 77 | 1014.7 |
| 20260507103543 | 5 | 250 | 4.8 | 16.1 | 0.00 | 0.61 | 0.15 | 75 | 1014.6 |
| 20260507103049 | 5 | 244 | 9.7 | 16.1 | 0.00 | 0.61 | 0.15 | 74 | 1014.6 |
| 20260507102542 | 5 | 230 | 8.0 | 16.1 | 0.00 | 0.61 | 0.15 | 75 | 1014.5 |
| 20260507102042 | 5 | 236 | 8.0 | 16.1 | 0.00 | 0.61 | 0.15 | 75 | 1014.6 |
| 20260507101554 | 5 | 192 | 8.0 | 16.1 | 0.00 | 0.61 | 0.15 | 76 | 1014.6 |
| 20260507101042 | 5 | 249 | 6.4 | 17.7 | 0.00 | 0.61 | 0.15 | 77 | 1014.6 |
| 20260507100542 | 5 | 300 | 9.7 | 19.3 | 0.00 | 0.61 | 0.15 | 76 | 1014.5 |
| 20260507100056 | 5 | 273 | 6.4 | 19.3 | 0.00 | 0.61 | 0.15 | 76 | 1014.5 |
| 20260507095545 | 5 | 214 | 11.3 | 19.3 | 0.00 | 0.61 | 0.15 | 78 | 1014.4 |
| 20260507095043 | 5 | 257 | 8.0 | 12.9 | 0.00 | 0.61 | 0.15 | 78 | 1014.5 |
| 20260507094555 | 5 | 180 | 6.4 | 12.9 | 0.00 | 0.61 | 0.15 | 78 | 1014.4 |
| 20260507094046 | 5 | 294 | 4.8 | 19.3 | 0.00 | 0.61 | 0.15 | 79 | 1014.4 |
| 20260507093543 | 5 | 258 | 9.7 | 19.3 | 0.00 | 0.61 | 0.15 | 79 | 1014.3 |
| 20260507093053 | 5 | 263 | 4.8 | 16.1 | 0.00 | 0.61 | 0.15 | 78 | 1014.3 |
| 20260507092543 | 5 | 227 | 8.0 | 19.3 | 0.00 | 0.61 | 0.15 | 78 | 1014.3 |
| 20260507092047 | 5 | 252 | 8.0 | 19.3 | 0.00 | 0.61 | 0.15 | 77 | 1014.3 |
| 20260507091553 | 5 | 238 | 8.0 | 17.7 | 0.00 | 0.61 | 0.15 | 76 | 1014.3 |
| 20260507091043 | 5 | 233 | 6.4 | 14.5 | 0.00 | 0.61 | 0.15 | 76 | 1014.1 |
| 20260507090542 | 5 | 243 | 6.4 | 14.5 | 0.03 | 0.61 | 0.15 | 75 | 1014.1 |
| 20260507090055 | 5 | 207 | 3.2 | 14.5 | 0.05 | 0.61 | 0.15 | 78 | 1014.0 |
| 20260507085542 | 5 | 260 | 1.6 | 11.3 | 0.05 | 0.61 | 0.15 | 81 | 1013.9 |
| 20260507085042 | 5 | 231 | 1.6 | 11.3 | 0.05 | 0.61 | 0.15 | 79 | 1014.0 |
| 20260507084558 | 5 | 167 | 3.2 | 11.3 | 0.05 | 0.61 | 0.15 | 78 | 1013.9 |
| 20260507084042 | 5 | 170 | 6.4 | 14.5 | 0.05 | 0.61 | 0.15 | 78 | 1013.9 |
| 20260507083542 | 5 | 191 | 4.8 | 19.3 | 0.05 | 0.61 | 0.15 | 79 | 1013.8 |
| 20260507083047 | 5 | 232 | 4.8 | 19.3 | 0.05 | 0.61 | 0.15 | 80 | 1013.8 |
| 20260507082542 | 5 | 232 | 6.4 | 19.3 | 0.05 | 0.61 | 0.15 | 80 | 1013.8 |
| 20260507082042 | 5 | 230 | 3.2 | 11.3 | 0.03 | 0.58 | 0.13 | 80 | 1013.7 |
| 20260507081554 | 5 | 175 | 1.6 | 6.4 | 0.03 | 0.58 | 0.13 | 80 | 1013.8 |
| 20260507081042 | 5 | 0 | 1.6 | 19.3 | 0.03 | 0.58 | 0.13 | 78 | 1013.7 |
| 20260507080545 | 5 | 300 | 3.2 | 19.3 | 0.00 | 0.56 | 0.10 | 78 | 1013.7 |
| 20260507080054 | 5 | 232 | 6.4 | 16.1 | 0.00 | 0.56 | 0.08 | 78 | 1013.6 |
| 20260507075546 | 5 | 263 | 3.2 | 14.5 | 0.00 | 0.56 | 0.08 | 78 | 1013.6 |
| 20260507075043 | 5 | 259 | 3.2 | 11.3 | 0.00 | 0.56 | 0.08 | 78 | 1013.5 |
| 20260507074552 | 5 | 254 | 3.2 | 9.7 | 0.00 | 0.56 | 0.08 | 78 | 1013.5 |
| 20260507074042 | 5 | 137 | 0.0 | 6.4 | 0.00 | 0.56 | 0.08 | 80 | 1013.5 |
| 20260507073542 | 5 | 100 | 0.0 | 6.4 | 0.00 | 0.56 | 0.08 | 82 | 1013.5 |
| 20260507073056 | 5 | 101 | 0.0 | 6.4 | 0.00 | 0.56 | 0.08 | 82 | 1013.3 |
| 20260507072542 | 5 | 101 | 0.0 | 9.7 | 0.00 | 0.56 | 0.08 | 83 | 1013.3 |
| 20260507072045 | 5 | 0 | 1.6 | 9.7 | 0.00 | 0.56 | 0.08 | 83 | 1013.3 |
| 20260507071551 | 5 | 103 | 1.6 | 9.7 | 0.00 | 0.56 | 0.08 | 85 | 1013.2 |
| 20260507071043 | 5 | 98 | 0.0 | 9.7 | 0.00 | 0.56 | 0.08 | 85 | 1013.2 |
| 20260507070543 | 4 | 103 | 3.2 | 6.4 | 0.00 | 0.56 | 0.08 | 85 | 1013.1 |
| 20260507070103 | 4 | 0 | 0.0 | 0.0 | 0.03 | 0.56 | 0.08 | 84 | 1013.1 |
| 20260507065542 | 4 | 0 | 0.0 | 0.0 | 0.03 | 0.56 | 0.08 | 84 | 1013.0 |
| 20260507065042 | 3 | 0 | 0.0 | 0.0 | 0.03 | 0.56 | 0.08 | 83 | 1013.0 |
| 20260507064550 | 3 | 0 | 0.0 | 0.0 | 0.03 | 0.56 | 0.08 | 83 | 1013.0 |
| 20260507064043 | 3 | 0 | 0.0 | 0.0 | 0.03 | 0.56 | 0.08 | 83 | 1012.9 |
| 20260507063544 | 3 | 0 | 0.0 | 0.0 | 0.03 | 0.56 | 0.08 | 83 | 1013.0 |
| 20260507063055 | 3 | 0 | 0.0 | 0.0 | 0.03 | 0.56 | 0.08 | 82 | 1013.0 |
| 20260507062542 | 3 | 0 | 0.0 | 0.0 | 0.03 | 0.56 | 0.08 | 82 | 1012.9 |
| 20260507062042 | 3 | 0 | 0.0 | 6.4 | 0.03 | 0.56 | 0.08 | 82 | 1012.9 |
| 20260507061547 | 3 | 0 | 0.0 | 6.4 | 0.03 | 0.56 | 0.08 | 82 | 1012.9 |
| 20260507061043 | 3 | 244 | 1.6 | 6.4 | 0.03 | 0.56 | 0.08 | 83 | 1012.9 |
| 20260507060542 | 3 | 352 | 1.6 | 6.4 | 0.00 | 0.53 | 0.08 | 83 | 1012.9 |
| 20260507060051 | 3 | 0 | 0.0 | 0.0 | 0.00 | 0.51 | 0.05 | 83 | 1012.8 |
| 20260507055542 | 3 | 0 | 0.0 | 0.0 | 0.00 | 0.51 | 0.05 | 83 | 1012.7 |
| 20260507055041 | 3 | 0 | 0.0 | 0.0 | 0.00 | 0.51 | 0.05 | 83 | 1012.6 |
| 20260507054551 | 3 | 0 | 0.0 | 0.0 | 0.00 | 0.51 | 0.05 | 83 | 1012.6 |
| 20260507054044 | 3 | 0 | 0.0 | 0.0 | 0.00 | 0.51 | 0.05 | 83 | 1012.6 |
| 20260507053543 | 3 | 0 | 0.0 | 0.0 | 0.00 | 0.51 | 0.05 | 83 | 1012.6 |
| 20260507053052 | 3 | 0 | 0.0 | 0.0 | 0.00 | 0.51 | 0.05 | 84 | 1012.5 |
| 20260507052542 | 3 | 0 | 0.0 | 0.0 | 0.00 | 0.51 | 0.05 | 84 | 1012.4 |
| 20260507052043 | 3 | 0 | 0.0 | 0.0 | 0.00 | 0.51 | 0.05 | 84 | 1012.3 |
| 20260507051600 | 3 | 0 | 0.0 | 0.0 | 0.00 | 0.51 | 0.05 | 84 | 1012.3 |
| 20260507051042 | 2 | 0 | 0.0 | 0.0 | 0.00 | 0.51 | 0.05 | 84 | 1012.3 |
| 20260507050543 | 2 | 0 | 0.0 | 0.0 | 0.00 | 0.51 | 0.05 | 84 | 1012.4 |
| 20260507050106 | 2 | 0 | 0.0 | 0.0 | 0.00 | 0.51 | 0.05 | 85 | 1012.3 |
| 20260507045542 | 2 | 0 | 0.0 | 0.0 | 0.00 | 0.51 | 0.05 | 85 | 1012.4 |
| 20260507045042 | 2 | 0 | 0.0 | 0.0 | 0.00 | 0.51 | 0.05 | 85 | 1012.2 |
| 20260507044552 | 2 | 0 | 0.0 | 0.0 | 0.00 | 0.51 | 0.05 | 85 | 1012.3 |
| 20260507044046 | 2 | 0 | 0.0 | 0.0 | 0.00 | 0.51 | 0.05 | 85 | 1012.2 |
| 20260507043542 | 2 | 0 | 0.0 | 0.0 | 0.00 | 0.51 | 0.05 | 85 | 1012.2 |
| 20260507043050 | 2 | 0 | 0.0 | 0.0 | 0.00 | 0.51 | 0.05 | 86 | 1012.1 |
| 20260507042545 | 2 | 0 | 0.0 | 0.0 | 0.00 | 0.51 | 0.05 | 85 | 1012.1 |
| 20260507042043 | 2 | 0 | 0.0 | 0.0 | 0.00 | 0.51 | 0.05 | 85 | 1012.1 |
| 20260507041555 | 2 | 0 | 0.0 | 0.0 | 0.00 | 0.51 | 0.05 | 85 | 1012.1 |
| 20260507041043 | 2 | 0 | 0.0 | 0.0 | 0.00 | 0.51 | 0.05 | 84 | 1012.1 |
| 20260507040543 | 2 | 0 | 0.0 | 0.0 | 0.00 | 0.51 | 0.05 | 84 | 1012.0 |
| 20260507040053 | 2 | 0 | 0.0 | 0.0 | 0.00 | 0.51 | 0.05 | 84 | 1012.0 |
| 20260507035542 | 2 | 0 | 0.0 | 0.0 | 0.00 | 0.51 | 0.05 | 85 | 1011.9 |
| 20260507035045 | 1 | 0 | 0.0 | 0.0 | 0.00 | 0.51 | 0.05 | 85 | 1011.9 |
| 20260507034546 | 1 | 0 | 0.0 | 0.0 | 0.00 | 0.51 | 0.05 | 84 | 1011.9 |
| 20260507034043 | 1 | 0 | 0.0 | 0.0 | 0.00 | 0.51 | 0.05 | 84 | 1011.9 |
| 20260507033543 | 1 | 0 | 0.0 | 0.0 | 0.00 | 0.51 | 0.05 | 84 | 1011.9 |
| 20260507033049 | 1 | 0 | 0.0 | 0.0 | 0.00 | 0.51 | 0.05 | 84 | 1011.8 |
| 20260507032540 | 1 | 0 | 0.0 | 0.0 | 0.00 | 0.51 | 0.05 | 84 | 1011.9 |
| 20260507032043 | 1 | 0 | 0.0 | 0.0 | 0.00 | 0.51 | 0.05 | 84 | 1012.0 |
| 20260507031545 | 1 | 0 | 0.0 | 0.0 | 0.00 | 0.51 | 0.05 | 84 | 1011.9 |
| 20260507031048 | 1 | 0 | 0.0 | 3.2 | 0.00 | 0.51 | 0.05 | 84 | 1012.0 |
| 20260507030543 | 1 | 0 | 0.0 | 3.2 | 0.00 | 0.51 | 0.05 | 84 | 1011.9 |
| 20260507030054 | 1 | 88 | 0.0 | 3.2 | 0.00 | 0.51 | 0.05 | 84 | 1011.9 |
| 20260507025545 | 1 | 0 | 0.0 | 0.0 | 0.00 | 0.51 | 0.05 | 84 | 1011.9 |
| 20260507025042 | 1 | 0 | 0.0 | 0.0 | 0.00 | 0.51 | 0.05 | 84 | 1011.8 |
| 20260507024553 | 1 | 0 | 0.0 | 0.0 | 0.00 | 0.51 | 0.05 | 83 | 1011.8 |
| 20260507024044 | 1 | 0 | 0.0 | 0.0 | 0.00 | 0.51 | 0.05 | 83 | 1011.8 |
| 20260507023545 | 1 | 0 | 0.0 | 0.0 | 0.00 | 0.51 | 0.05 | 83 | 1011.8 |
| 20260507023051 | 1 | 0 | 0.0 | 0.0 | 0.00 | 0.51 | 0.05 | 83 | 1011.8 |
| 20260507022542 | 1 | 0 | 0.0 | 0.0 | 0.00 | 0.51 | 0.05 | 82 | 1011.8 |
| 20260507022043 | 1 | 0 | 0.0 | 0.0 | 0.00 | 0.51 | 0.05 | 82 | 1011.7 |
| 20260507021557 | 1 | 0 | 0.0 | 0.0 | 0.00 | 0.51 | 0.05 | 82 | 1011.6 |
| 20260507021042 | 1 | 0 | 0.0 | 0.0 | 0.00 | 0.51 | 0.05 | 82 | 1011.7 |
| 20260507020543 | 1 | 0 | 0.0 | 0.0 | 0.00 | 0.51 | 0.05 | 83 | 1011.8 |
| 20260507020048 | 1 | 0 | 0.0 | 0.0 | 0.00 | 0.51 | 0.05 | 83 | 1011.7 |
| 20260507015542 | 1 | 0 | 0.0 | 0.0 | 0.00 | 0.51 | 0.05 | 83 | 1011.7 |
| 20260507015042 | 1 | 0 | 0.0 | 0.0 | 0.00 | 0.51 | 0.05 | 83 | 1011.7 |
| 20260507014547 | 1 | 0 | 0.0 | 0.0 | 0.00 | 0.51 | 0.05 | 83 | 1011.7 |
| 20260507014043 | 1 | 0 | 0.0 | 0.0 | 0.00 | 0.51 | 0.05 | 83 | 1011.6 |
| 20260507013544 | 1 | 0 | 0.0 | 0.0 | 0.00 | 0.51 | 0.05 | 83 | 1011.6 |
| 20260507013046 | 1 | 0 | 0.0 | 0.0 | 0.00 | 0.51 | 0.05 | 83 | 1011.5 |
| 20260507012546 | 1 | 0 | 0.0 | 0.0 | 0.00 | 0.51 | 0.05 | 82 | 1011.6 |
| 20260507012042 | 2 | 0 | 0.0 | 0.0 | 0.00 | 0.51 | 0.05 | 82 | 1011.6 |
| 20260507011550 | 2 | 0 | 0.0 | 0.0 | 0.00 | 0.51 | 0.05 | 82 | 1011.5 |
| 20260507011042 | 2 | 0 | 0.0 | 0.0 | 0.00 | 0.51 | 0.05 | 82 | 1011.4 |
| 20260507010542 | 2 | 0 | 0.0 | 0.0 | 0.00 | 0.51 | 0.05 | 82 | 1011.4 |
| 20260507010050 | 2 | 0 | 0.0 | 0.0 | 0.00 | 0.51 | 0.05 | 82 | 1011.4 |
| 20260507005543 | 2 | 0 | 0.0 | 0.0 | 0.00 | 0.51 | 0.05 | 82 | 1011.4 |
| 20260507005042 | 2 | 0 | 0.0 | 0.0 | 0.00 | 0.51 | 0.05 | 82 | 1011.5 |
| 20260507004547 | 2 | 0 | 0.0 | 0.0 | 0.00 | 0.51 | 0.05 | 82 | 1011.5 |
| 20260507004043 | 2 | 0 | 0.0 | 0.0 | 0.00 | 0.51 | 0.05 | 82 | 1011.5 |
| 20260507003543 | 2 | 0 | 0.0 | 0.0 | 0.00 | 0.51 | 0.05 | 82 | 1011.4 |
| 20260507003049 | 2 | 0 | 0.0 | 0.0 | 0.00 | 0.51 | 0.05 | 83 | 1011.5 |
| 20260507002542 | 2 | 0 | 0.0 | 0.0 | 0.00 | 0.51 | 0.05 | 83 | 1011.5 |
| 20260507002042 | 2 | 0 | 0.0 | 0.0 | 0.00 | 0.51 | 0.05 | 83 | 1011.4 |
| 20260507001551 | 2 | 0 | 0.0 | 0.0 | 0.00 | 0.51 | 0.05 | 83 | 1011.5 |
| 20260507001042 | 2 | 0 | 0.0 | 0.0 | 0.00 | 0.51 | 0.05 | 82 | 1011.4 |
| 20260507000542 | 2 | 0 | 0.0 | 0.0 | 0.00 | 0.51 | 0.05 | 82 | 1011.4 |
| 20260507000054 | 2 | 0 | 0.0 | 0.0 | 0.00 | 0.51 | 0.05 | 81 | 1011.3 |
| 20260506235543 | 2 | 0 | 0.0 | 0.0 | 0.00 | 0.51 | 0.05 | 81 | 1011.2 |
| 20260506235042 | 2 | 0 | 0.0 | 0.0 | 0.00 | 0.48 | 0.03 | 81 | 1011.2 |
| 20260506234607 | 2 | 0 | 0.0 | 0.0 | 0.00 | 0.48 | 0.03 | 82 | 1011.1 |
| 20260506234043 | 2 | 0 | 0.0 | 0.0 | 0.00 | 0.48 | 0.03 | 82 | 1011.1 |
| 20260506233543 | 2 | 0 | 0.0 | 0.0 | 0.00 | 0.48 | 0.03 | 82 | 1011.1 |
| 20260506233047 | 2 | 0 | 0.0 | 0.0 | 0.00 | 0.48 | 0.03 | 82 | 1011.1 |
| 20260506232545 | 2 | 0 | 0.0 | 0.0 | 0.00 | 0.48 | 0.03 | 82 | 1011.0 |
| 20260506232042 | 2 | 0 | 0.0 | 0.0 | 0.00 | 0.48 | 0.03 | 82 | 1011.1 |
| 20260506231550 | 2 | 0 | 0.0 | 0.0 | 0.00 | 0.48 | 0.03 | 82 | 1011.1 |
| 20260506231042 | 2 | 0 | 0.0 | 0.0 | 0.00 | 0.48 | 0.03 | 82 | 1011.1 |
| 20260506230544 | 2 | 0 | 0.0 | 0.0 | 0.03 | 0.48 | 0.03 | 82 | 1011.1 |
| 20260506230045 | 2 | 0 | 0.0 | 0.0 | 0.03 | 0.48 | 0.03 | 82 | 1011.2 |
| 20260506225542 | 2 | 0 | 0.0 | 1.6 | 0.03 | 0.48 | 0.03 | 82 | 1011.2 |
| 20260506225042 | 2 | 0 | 0.0 | 1.6 | 0.05 | 0.48 | 0.03 | 82 | 1011.2 |
| 20260506224548 | 2 | 0 | 0.0 | 1.6 | 0.03 | 0.46 | 0.00 | 82 | 1011.2 |
| 20260506224041 | 2 | 0 | 0.0 | 1.6 | 0.05 | 0.46 | 0.00 | 82 | 1011.1 |
| 20260506223542 | 2 | 0 | 0.0 | 3.2 | 0.05 | 0.46 | 0.00 | 82 | 1011.1 |
| 20260506223056 | 2 | 88 | 0.0 | 3.2 | 0.05 | 0.46 | 0.00 | 82 | 1011.0 |
| 20260506222543 | 2 | 88 | 0.0 | 6.4 | 0.05 | 0.46 | 0.00 | 83 | 1011.1 |
| 20260506222045 | 2 | 90 | 0.0 | 9.7 | 0.05 | 0.46 | 0.00 | 83 | 1011.0 |
| 20260506221551 | 2 | 90 | 1.6 | 9.7 | 0.05 | 0.46 | 0.00 | 83 | 1011.0 |
| 20260506221044 | 2 | 107 | 3.2 | 9.7 | 0.05 | 0.46 | 0.00 | 83 | 1011.0 |
| 20260506220542 | 2 | 98 | 0.0 | 4.8 | 0.03 | 0.46 | 0.00 | 83 | 1011.1 |
| 20260506220049 | 2 | 0 | 0.0 | 3.2 | 0.03 | 0.46 | 0.00 | 82 | 1011.1 |
| 20260506215543 | 2 | 0 | 0.0 | 3.2 | 0.00 | 0.43 | 0.43 | 82 | 1011.1 |
| 20260506215044 | 2 | 98 | 0.0 | 4.8 | 0.00 | 0.43 | 0.43 | 83 | 1011.0 |
| 20260506214546 | 2 | 0 | 0.0 | 6.4 | 0.00 | 0.43 | 0.43 | 83 | 1010.9 |
| 20260506214042 | 3 | 98 | 3.2 | 6.4 | 0.00 | 0.41 | 0.41 | 83 | 1010.9 |
| 20260506213545 | 3 | 98 | 1.6 | 6.4 | 0.00 | 0.41 | 0.41 | 82 | 1010.9 |
| 20260506213050 | 3 | 101 | 0.0 | 4.8 | 0.00 | 0.41 | 0.41 | 82 | 1010.9 |
| 20260506212543 | 3 | 0 | 0.0 | 0.0 | 0.00 | 0.41 | 0.41 | 82 | 1010.8 |
| 20260506212042 | 3 | 0 | 0.0 | 0.0 | 0.00 | 0.41 | 0.41 | 82 | 1010.8 |
| 20260506211552 | 3 | 0 | 0.0 | 0.0 | 0.00 | 0.41 | 0.41 | 82 | 1010.7 |
| 20260506211042 | 3 | 0 | 0.0 | 0.0 | 0.00 | 0.41 | 0.41 | 82 | 1010.8 |
| 20260506210542 | 3 | 0 | 0.0 | 0.0 | 0.00 | 0.41 | 0.41 | 82 | 1010.8 |
| 20260506210051 | 3 | 0 | 0.0 | 3.2 | 0.00 | 0.41 | 0.41 | 82 | 1010.8 |
| 20260506205541 | 3 | 0 | 0.0 | 3.2 | 0.03 | 0.41 | 0.41 | 82 | 1010.7 |
| 20260506205041 | 3 | 186 | 1.6 | 3.2 | 0.05 | 0.41 | 0.41 | 82 | 1010.7 |
| 20260506204556 | 3 | 0 | 0.0 | 1.6 | 0.05 | 0.41 | 0.41 | 82 | 1010.7 |
| 20260506204045 | 3 | 0 | 0.0 | 3.2 | 0.03 | 0.38 | 0.38 | 82 | 1010.6 |
| 20260506203542 | 3 | 0 | 0.0 | 3.2 | 0.03 | 0.38 | 0.38 | 82 | 1010.4 |
| 20260506203047 | 3 | 0 | 1.6 | 3.2 | 0.03 | 0.38 | 0.38 | 82 | 1010.4 |
| 20260506202542 | 3 | 0 | 0.0 | 3.2 | 0.03 | 0.38 | 0.38 | 80 | 1010.3 |
| 20260506202042 | 3 | 0 | 0.0 | 0.0 | 0.03 | 0.38 | 0.38 | 80 | 1010.3 |
| 20260506201556 | 3 | 0 | 0.0 | 0.0 | 0.03 | 0.38 | 0.38 | 80 | 1010.3 |
| 20260506201043 | 3 | 0 | 0.0 | 0.0 | 0.03 | 0.38 | 0.38 | 80 | 1010.3 |
| 20260506200541 | 3 | 0 | 0.0 | 0.0 | 0.05 | 0.38 | 0.38 | 80 | 1010.3 |
| 20260506200109 | 3 | 0 | 0.0 | 0.0 | 0.05 | 0.38 | 0.38 | 80 | 1010.3 |
| 20260506195545 | 3 | 0 | 0.0 | 0.0 | 0.03 | 0.36 | 0.36 | 80 | 1010.3 |
| 20260506195042 | 3 | 0 | 0.0 | 0.0 | 0.00 | 0.36 | 0.36 | 80 | 1010.2 |
| 20260506194606 | 3 | 0 | 0.0 | 0.0 | 0.00 | 0.36 | 0.36 | 80 | 1010.1 |
| 20260506194041 | 3 | 0 | 0.0 | 0.0 | 0.00 | 0.36 | 0.36 | 80 | 1010.1 |
| 20260506193544 | 3 | 0 | 0.0 | 0.0 | 0.00 | 0.36 | 0.36 | 80 | 1010.0 |
| 20260506193052 | 3 | 0 | 0.0 | 0.0 | 0.00 | 0.36 | 0.36 | 80 | 1010.0 |
| 20260506192542 | 3 | 0 | 0.0 | 0.0 | 0.03 | 0.36 | 0.36 | 80 | 1010.1 |
| 20260506192046 | 3 | 0 | 0.0 | 1.6 | 0.03 | 0.36 | 0.36 | 80 | 1010.0 |
| 20260506191547 | 3 | 0 | 0.0 | 6.4 | 0.03 | 0.36 | 0.36 | 81 | 1010.0 |
| 20260506191042 | 3 | 0 | 1.6 | 6.4 | 0.05 | 0.36 | 0.36 | 81 | 1010.0 |
| 20260506190542 | 3 | 193 | 0.0 | 3.2 | 0.03 | 0.33 | 0.33 | 81 | 1010.0 |
| 20260506190053 | 3 | 0 | 0.0 | 0.0 | 0.03 | 0.33 | 0.33 | 81 | 1009.8 |
| 20260506185542 | 3 | 0 | 0.0 | 0.0 | 0.03 | 0.33 | 0.33 | 79 | 1009.7 |
| 20260506185045 | 3 | 0 | 0.0 | 0.0 | 0.03 | 0.33 | 0.33 | 79 | 1009.6 |
| 20260506184602 | 3 | 0 | 0.0 | 0.0 | 0.05 | 0.33 | 0.33 | 79 | 1009.7 |
| 20260506184042 | 3 | 0 | 0.0 | 0.0 | 0.05 | 0.33 | 0.33 | 80 | 1009.6 |
| 20260506183541 | 3 | 0 | 0.0 | 0.0 | 0.08 | 0.33 | 0.33 | 80 | 1009.6 |
| 20260506183102 | 3 | 0 | 0.0 | 0.0 | 0.08 | 0.33 | 0.33 | 79 | 1009.6 |
| 20260506182541 | 3 | 0 | 0.0 | 0.0 | 0.05 | 0.30 | 0.30 | 79 | 1009.5 |
| 20260506182041 | 3 | 0 | 0.0 | 0.0 | 0.05 | 0.30 | 0.30 | 79 | 1009.6 |
| 20260506181557 | 3 | 0 | 0.0 | 0.0 | 0.05 | 0.30 | 0.30 | 79 | 1009.6 |
| 20260506181042 | 3 | 0 | 0.0 | 0.0 | 0.05 | 0.28 | 0.28 | 79 | 1009.5 |
| 20260506180545 | 3 | 0 | 0.0 | 0.0 | 0.05 | 0.28 | 0.28 | 79 | 1009.5 |
| 20260506180051 | 3 | 0 | 0.0 | 1.6 | 0.05 | 0.28 | 0.28 | 79 | 1009.5 |
| 20260506175544 | 3 | 0 | 0.0 | 3.2 | 0.08 | 0.28 | 0.28 | 78 | 1009.6 |
| 20260506175042 | 3 | 0 | 0.0 | 3.2 | 0.05 | 0.28 | 0.28 | 78 | 1009.4 |
| 20260506174547 | 3 | 0 | 0.0 | 1.6 | 0.05 | 0.28 | 0.28 | 78 | 1009.4 |
| 20260506174042 | 3 | 0 | 0.0 | 4.8 | 0.05 | 0.28 | 0.28 | 78 | 1009.2 |
| 20260506173542 | 3 | 0 | 0.0 | 4.8 | 0.05 | 0.25 | 0.25 | 78 | 1009.3 |
| 20260506173059 | 3 | 113 | 1.6 | 4.8 | 0.05 | 0.25 | 0.25 | 78 | 1009.4 |
| 20260506172543 | 3 | 0 | 0.0 | 4.8 | 0.05 | 0.25 | 0.25 | 78 | 1009.3 |
| 20260506172043 | 3 | 130 | 0.0 | 4.8 | 0.08 | 0.25 | 0.25 | 78 | 1009.2 |
| 20260506171550 | 3 | 58 | 1.6 | 4.8 | 0.08 | 0.25 | 0.25 | 77 | 1009.2 |
| 20260506171042 | 3 | 56 | 1.6 | 4.8 | 0.08 | 0.23 | 0.23 | 77 | 1009.0 |
| 20260506170542 | 3 | 101 | 0.0 | 1.6 | 0.08 | 0.23 | 0.23 | 77 | 1009.1 |
| 20260506170050 | 3 | 0 | 0.0 | 1.6 | 0.08 | 0.23 | 0.23 | 77 | 1009.0 |
| 20260506165541 | 3 | 0 | 0.0 | 1.6 | 0.10 | 0.20 | 0.20 | 77 | 1009.1 |
| 20260506165042 | 3 | 0 | 0.0 | 6.4 | 0.13 | 0.20 | 0.20 | 77 | 1009.1 |
| 20260506164551 | 3 | 0 | 0.0 | 6.4 | 0.15 | 0.20 | 0.20 | 77 | 1009.3 |
| 20260506164041 | 3 | 20 | 0.0 | 3.2 | 0.18 | 0.20 | 0.20 | 76 | 1009.2 |
| 20260506163541 | 3 | 0 | 0.0 | 0.0 | 0.15 | 0.18 | 0.18 | 76 | 1009.2 |
| 20260506163051 | 3 | 0 | 0.0 | 0.0 | 0.18 | 0.18 | 0.18 | 75 | 1009.0 |
| 20260506162541 | 3 | 0 | 0.0 | 0.0 | 0.18 | 0.18 | 0.18 | 75 | 1009.1 |
| 20260506162041 | 3 | 0 | 0.0 | 0.0 | 0.18 | 0.18 | 0.18 | 75 | 1009.1 |
| 20260506161551 | 4 | 0 | 0.0 | 0.0 | 0.15 | 0.15 | 0.15 | 74 | 1009.2 |
| 20260506161041 | 4 | 0 | 0.0 | 0.0 | 0.15 | 0.15 | 0.15 | 74 | 1009.1 |
| 20260506160541 | 4 | 0 | 0.0 | 9.7 | 0.15 | 0.15 | 0.15 | 74 | 1009.1 |
| 20260506160055 | 4 | 0 | 0.0 | 9.7 | 0.13 | 0.13 | 0.13 | 73 | 1009.1 |
| 20260506155542 | 4 | 20 | 1.6 | 9.7 | 0.08 | 0.08 | 0.08 | 73 | 1009.1 |
| 20260506155044 | 4 | 342 | 3.2 | 8.0 | 0.08 | 0.08 | 0.08 | 73 | 1009.1 |
| 20260506154554 | 5 | 360 | 1.6 | 9.7 | 0.05 | 0.05 | 0.05 | 73 | 1009.0 |
| 20260506154046 | 5 | 352 | 4.8 | 16.1 | 0.03 | 0.03 | 0.03 | 73 | 1009.0 |
| 20260506153543 | 5 | 347 | 3.2 | 16.1 | 0.00 | 0.00 | 0.00 | 73 | 1008.9 |
| 20260506153053 | 5 | 11 | 9.7 | 16.1 | 0.00 | 0.00 | 0.00 | 73 | 1009.0 |
| 20260506152541 | 5 | 11 | 4.8 | 14.5 | 0.00 | 0.00 | 0.00 | 72 | 1009.0 |
| 20260506152043 | 5 | 280 | 1.6 | 11.3 | 0.00 | 0.00 | 0.00 | 72 | 1008.8 |
| 20260506151603 | 5 | 266 | 1.6 | 9.7 | 0.00 | 0.00 | 0.00 | 71 | 1008.8 |
| 20260506151041 | 5 | 217 | 1.6 | 6.4 | 0.00 | 0.00 | 0.00 | 71 | 1008.7 |
| 20260506150542 | 5 | 219 | 3.2 | 14.5 | 0.00 | 0.00 | 0.00 | 71 | 1008.8 |
| 20260506150047 | 5 | 256 | 6.4 | 19.3 | 0.00 | 0.00 | 0.00 | 70 | 1008.8 |
| 20260506145540 | 5 | 279 | 4.8 | 22.5 | 0.00 | 0.00 | 0.00 | 70 | 1008.9 |
| 20260506145042 | 6 | 175 | 9.7 | 22.5 | 0.00 | 0.00 | 0.00 | 69 | 1008.9 |
| 20260506144602 | 6 | 228 | 4.8 | 14.5 | 0.00 | 0.00 | 0.00 | 68 | 1008.8 |
| 20260506144043 | 6 | 258 | 6.4 | 16.1 | 0.00 | 0.00 | 0.00 | 67 | 1008.6 |
| 20260506143543 | 6 | 150 | 6.4 | 16.1 | 0.00 | 0.00 | 0.00 | 67 | 1008.7 |
| 20260506143054 | 6 | 193 | 8.0 | 17.7 | 0.00 | 0.00 | 0.00 | 67 | 1008.6 |
| 20260506142542 | 6 | 261 | 6.4 | 19.3 | 0.00 | 0.00 | 0.00 | 66 | 1008.7 |